Waarnemingen

Advertentie
Mijn weer
Altnaharra, Groot Brittannië (3044): temperatuur & dauwpunt: 10.01.2021 03:00:00 - 16.01.2021 03:00:00 (GMT)Altnaharra, Groot Brittannië (3044): temperatuur -20cm & temperatuur -100cm: 10.01.2021 03:00:00 - 16.01.2021 03:00:00 (GMT)Altnaharra, Groot Brittannië (3044): windsnelheid & windstoten: 10.01.2021 03:00:00 - 16.01.2021 03:00:00 (GMT)Altnaharra, Groot Brittannië (3044): windrichting: 10.01.2021 03:00:00 - 16.01.2021 03:00:00 (GMT)Altnaharra, Groot Brittannië (3044): luchtdruk: 10.01.2021 03:00:00 - 16.01.2021 03:00:00 (GMT)Altnaharra, Groot Brittannië (3044): zicht: 10.01.2021 03:00:00 - 16.01.2021 03:00:00 (GMT)Altnaharra, Groot Brittannië (3044): Zonneschijnduur: 10.01.2021 03:00:00 - 16.01.2021 03:00:00 (GMT)Altnaharra, Groot Brittannië (3044): neerslag: 10.01.2021 03:00:00 - 16.01.2021 03:00:00 (GMT)
Datum & Tijd tt [°C] td [°C] tt -20cm [°C] tt -100cm [°C] ff [km/u] ff [kn] fx [km/u] fx [kn] dd ppp [hPa] vv [km] sd [min] rr [mm]
16.01.2021 03:00:00 3,6 1,7 - - 48 26 67 36 OZO 1004,4 8 0 3,2
16.01.2021 02:00:00 4,3 2,3 - - 37 20 61 33 ZO 1006,7 4,5 0 4,0
16.01.2021 01:00:00 4,0 2,0 - - 37 20 67 36 ZO 1007,9 6 0 3,6
16.01.2021 00:00:00 3,6 1,2 - - 21 11 54 29 ZO 1010,0 3,5 - 1,4
15.01.2021 23:00:00 3,3 -0,2 - - 22 12 50 27 O 1012,5 50 0 0,0
15.01.2021 22:00:00 4,2 -1,5 - - 8 4 - - W 1013,9 50 0 0,0
15.01.2021 21:00:00 3,2 -1,3 - - 13 7 - - NNO 1015,8 50 0 0,0
15.01.2021 20:00:00 1,2 -0,9 - - 5 3 - - N 1016,8 50 0 0,0
15.01.2021 19:00:00 1,0 -0,8 - - 13 7 - - WNW 1018,0 50 0 0,0
15.01.2021 18:00:00 0,1 -1,2 - - 8 4 - - N 1019,5 50 0 0,0
15.01.2021 17:00:00 -0,1 -1,0 - - 8 4 - - NNW 1020,4 50 0 0,0
15.01.2021 16:00:00 0,6 -0,4 - - 5 3 - - NW 1021,1 50 0 0,0
15.01.2021 15:00:00 1,2 0,3 - - 9 5 - - W 1022,0 50 0 0,2
15.01.2021 14:00:00 2,3 1,1 - - 8 4 - - NNW 1023,3 50 12 0,0
15.01.2021 13:00:00 3,5 1,6 - - 5 3 - - NNW 1024,2 45 60 0,0
15.01.2021 12:00:00 3,5 1,5 - - 8 4 - - WZW 1025,0 26 54 0,0
15.01.2021 11:00:00 3,6 1,8 - - 11 6 - - Z 1025,3 19 30 0,0
15.01.2021 10:00:00 2,8 0,5 - - 9 5 - - ZZW 1025,2 30 0 0,0
15.01.2021 09:00:00 2,7 0,7 1,9 4,0 16 9 - - Z 1025,4 23 0 0,0
15.01.2021 08:00:00 0,6 -0,4 - - 4 2 - - N 1025,2 25 0 0,0
15.01.2021 07:00:00 1,5 0,2 - - 8 4 - - WZW 1024,8 19 0 0,0
15.01.2021 06:00:00 2,8 1,9 - - 4 2 - - WNW 1024,5 19 0 0,0
15.01.2021 05:00:00 4,0 2,6 - - 8 4 - - WZW 1024,2 18 0 0,2
15.01.2021 04:00:00 4,2 3,8 - - 8 4 - - ZZW 1024,1 11 0 0,4
15.01.2021 03:00:00 3,5 2,9 - - 5 3 - - WZW 1023,9 27 0 0,2
15.01.2021 02:00:00 4,2 2,6 - - 5 3 - - ZW 1023,5 25 0 0,2
15.01.2021 01:00:00 4,0 2,3 - - 5 3 - - WZW 1023,3 20 0 0,0
15.01.2021 00:00:00 5,2 2,6 - - 15 8 54 29 W 1023,0 40 - 0,0
14.01.2021 23:00:00 6,0 3,9 - - 11 6 - - WZW 1022,5 45 0 0,0
14.01.2021 22:00:00 5,0 3,3 - - 13 7 - - W 1022,1 50 0 0,0
14.01.2021 21:00:00 3,2 2,9 - - 2 1 - - N 1021,6 50 0 0,0
14.01.2021 20:00:00 3,5 2,6 - - 5 3 - - ZZW 1021,1 50 0 0,0
14.01.2021 19:00:00 3,5 2,9 - - 11 6 - - Z 1020,7 15 0 0,0
14.01.2021 18:00:00 2,4 2,1 - - 2 1 - - ZW 1020,4 50 0 0,0
14.01.2021 17:00:00 2,6 2,1 - - 5 3 - - OZO 1019,8 50 0 0,0
14.01.2021 16:00:00 2,9 2,3 - - 5 3 - - NNW 1019,2 50 0 0,2
14.01.2021 15:00:00 2,9 2,1 - - 15 8 - - NNW 1018,5 50 0 0,2
14.01.2021 14:00:00 3,1 2,2 - - 13 7 - - N 1018,1 45 0 0,6
14.01.2021 13:00:00 3,5 1,7 - - 4 2 - - O 1018,1 9 0 1,0
14.01.2021 12:00:00 3,7 1,4 - - 21 11 - - ZO 1017,9 8 0 0,6
14.01.2021 11:00:00 3,8 1,3 - - 9 5 - - O 1017,5 19 0 0,4
14.01.2021 10:00:00 3,9 1,5 - - 11 6 - - OZO 1016,7 29 0 0,2
14.01.2021 09:00:00 3,8 1,3 1,7 4,2 13 7 46 25 OZO 1016,4 35 0 0,2
14.01.2021 08:00:00 3,8 1,5 - - 18 10 52 28 O 1015,8 50 0 0,2
14.01.2021 07:00:00 4,0 1,4 - - 15 8 - - ONO 1015,4 17 0 0,0
14.01.2021 06:00:00 3,7 1,3 - - 26 14 52 28 O 1015,1 40 0 0,2
14.01.2021 05:00:00 3,9 1,2 - - 22 12 52 28 OZO 1015,0 40 0 0,4
14.01.2021 04:00:00 3,8 0,9 - - 22 12 63 34 O 1014,8 18 0 0,0
14.01.2021 03:00:00 4,1 0,4 - - 22 12 57 31 ZZO 1014,3 50 0 0,0
14.01.2021 02:00:00 3,0 0,4 - - 8 4 - - ZW 1014,3 40 0 0,2
14.01.2021 01:00:00 4,4 -0,3 - - 21 11 52 28 O 1014,1 45 0 0,0
14.01.2021 00:00:00 4,5 0,0 - - 24 13 57 31 OZO 1013,9 26 - 0,0
13.01.2021 23:00:00 4,8 -0,1 - - 29 16 61 33 OZO 1014,1 50 0 0,0
13.01.2021 22:00:00 4,0 -0,6 - - 18 10 - - O 1014,1 50 0 0,0
13.01.2021 21:00:00 3,8 -0,4 - - 21 11 - - ONO 1014,5 40 0 0,0
13.01.2021 20:00:00 4,8 -0,5 - - 13 7 - - ONO 1014,3 45 0 0,0
13.01.2021 19:00:00 3,3 -0,4 - - 18 10 - - ONO 1015,0 40 0 0,0
13.01.2021 18:00:00 3,8 -0,6 - - 16 9 - - ONO 1014,9 50 0 0,6
13.01.2021 17:00:00 3,6 -0,8 - - 18 10 - - O 1015,2 50 0 0,0
13.01.2021 16:00:00 0,5 -0,7 - - 8 4 - - N 1015,3 45 0 0,0
13.01.2021 15:00:00 -0,4 -0,9 - - 9 5 - - W 1015,5 50 0 0,0
13.01.2021 14:00:00 -1,2 -1,5 - - 5 3 - - WNW 1016,1 45 0 0,0
13.01.2021 13:00:00 -1,7 -2,0 - - 5 3 - - WNW 1016,7 50 0 0,0
13.01.2021 12:00:00 -2,2 -2,4 - - 2 1 - - WNW 1017,5 50 0 0,0
13.01.2021 11:00:00 -3,6 -3,9 - - 2 1 - - NNW 1017,8 50 0 0,0
13.01.2021 10:00:00 -4,0 -4,2 - - 2 1 - - W 1018,0 45 0 0,0
13.01.2021 09:00:00 -4,8 -5,3 1,7 4,2 2 1 - - WZW 1017,8 50 0 0,0
13.01.2021 08:00:00 -3,8 -4,4 - - 4 2 - - W 1017,4 50 0 0,0
13.01.2021 07:00:00 -3,2 -3,8 - - 2 1 - - WNW 1017,2 50 0 0,0
13.01.2021 06:00:00 -1,8 -2,3 - - 4 2 - - W 1017,0 50 0 0,0
13.01.2021 05:00:00 -1,4 -1,9 - - 4 2 - - W 1017,3 50 0 0,0
13.01.2021 04:00:00 -1,3 -1,9 - - 2 1 - - NNW 1017,6 50 0 0,0
13.01.2021 03:00:00 -1,6 -2,0 - - 4 2 - - ZW 1017,5 50 0 0,0
13.01.2021 02:00:00 -2,3 -2,7 - - 2 1 - - NNO 1017,4 50 0 0,0
13.01.2021 01:00:00 -2,8 -3,3 - - 4 2 - - WNW 1017,9 50 0 0,0
13.01.2021 00:00:00 -2,9 -3,7 - - 0 0 57 31 N 1018,1 50 - 0,0
12.01.2021 23:00:00 -2,2 -3,0 - - 5 3 - - NNW 1017,9 50 0 0,0
12.01.2021 22:00:00 -0,7 -1,8 - - 2 1 - - WZW 1017,7 50 0 0,0
12.01.2021 21:00:00 0,1 -1,1 - - 2 1 - - WNW 1017,4 50 0 0,0
12.01.2021 20:00:00 0,3 -1,1 - - 8 4 - - W 1017,3 50 0 0,0
12.01.2021 19:00:00 0,5 -0,7 - - 9 5 - - WNW 1017,1 50 0 0,0
12.01.2021 18:00:00 0,7 -0,2 - - 5 3 - - NW 1017,0 50 0 0,0
12.01.2021 17:00:00 1,4 0,2 - - 4 2 - - Z 1016,7 50 0 0,2
12.01.2021 16:00:00 1,1 0,2 - - 9 5 - - W 1016,4 50 0 0,6
12.01.2021 15:00:00 1,6 0,6 - - 13 7 - - WNW 1016,1 45 12 1,6
12.01.2021 14:00:00 1,9 0,3 - - 16 9 - - WNW 1015,7 40 18 3,0
12.01.2021 13:00:00 2,4 -1,1 - - 11 6 - - WZW 1015,5 45 0 0,0
12.01.2021 12:00:00 3,0 -1,3 - - 16 9 - - WZW 1015,3 45 36 0,0
12.01.2021 11:00:00 1,7 0,5 - - 8 4 - - ZW 1015,1 45 0 0,0
12.01.2021 10:00:00 -0,7 -1,0 - - 4 2 - - O 1014,8 30 0 0,0
12.01.2021 09:00:00 -1,4 -1,6 1,7 4,2 2 1 - - ONO 1014,4 40 0 0,0
12.01.2021 08:00:00 -3,2 -3,9 - - 2 1 - - OZO 1013,5 40 0 0,0
12.01.2021 07:00:00 -2,9 -3,7 - - 4 2 - - WNW 1012,9 30 0 0,0
12.01.2021 06:00:00 -1,4 -2,2 - - 8 4 - - WNW 1012,0 35 0 0,0
12.01.2021 05:00:00 -0,1 -1,2 - - 8 4 - - W 1011,1 45 0 0,0
12.01.2021 04:00:00 0,4 -0,5 - - 8 4 - - W 1010,5 29 0 0,0
12.01.2021 03:00:00 1,6 0,3 - - 15 8 - - NW 1009,8 11 0 0,0
12.01.2021 02:00:00 -0,1 -1,7 - - 5 3 - - WNW 1009,1 40 0 0,0
12.01.2021 01:00:00 1,5 0,2 - - 8 4 - - OZO 1008,2 40 0 0,0
12.01.2021 00:00:00 -0,8 -1,7 - - 4 2 - - ZZW 1007,6 45 - 0,0
11.01.2021 23:00:00 0,0 -0,7 - - 4 2 - - ZW 1006,9 50 0 0,0
11.01.2021 22:00:00 0,2 -0,8 - - 4 2 - - ZW 1006,6 24 0 0,0
11.01.2021 21:00:00 0,2 -0,9 - - 4 2 - - Z 1006,0 18 0 0,0
11.01.2021 20:00:00 0,1 -1,1 - - 8 4 - - ZO 1005,4 50 0 0,0
11.01.2021 19:00:00 0,1 -2,5 - - 5 3 - - ZW 1005,2 50 0 0,0
11.01.2021 18:00:00 1,2 -2,3 - - 5 3 - - ZZW 1004,9 50 0 0,0
11.01.2021 17:00:00 -0,4 -1,3 - - 2 1 - - WNW 1004,8 50 0 0,0
11.01.2021 16:00:00 -0,1 -1,3 - - 2 1 - - ONO 1004,1 50 0 0,2
11.01.2021 15:00:00 0,7 -0,3 - - 8 4 - - WNW 1003,5 45 0 0,4
11.01.2021 14:00:00 0,9 0,2 - - 2 1 - - NW 1003,1 50 0 0,6
11.01.2021 13:00:00 1,2 0,6 - - 8 4 - - WZW 1002,8 40 0 1,0
11.01.2021 12:00:00 0,5 0,3 - - 8 4 - - WZW 1002,6 50 0 0,4
11.01.2021 11:00:00 0,5 0,4 - - 0 0 - - N 1002,6 1,9 0 0,0
11.01.2021 10:00:00 0,2 0,0 - - 0 0 - - N 1002,1 1,6 0 0,0
11.01.2021 09:00:00 0,1 -0,1 1,7 4,4 0 0 - - N 1002,2 2,2 0 0,2
11.01.2021 08:00:00 0,2 -0,2 - - 0 0 - - N 1002,1 0,7 0 0,2
11.01.2021 07:00:00 1,1 0,3 - - 0 0 - - N 1002,3 3,0 0 1,8
11.01.2021 06:00:00 2,4 1,7 - - 8 4 - - NNW 1002,3 5 0 3,2
11.01.2021 05:00:00 3,5 3,0 - - 8 4 - - NW 1002,4 10 0 2,4
11.01.2021 04:00:00 4,5 4,0 - - 4 2 - - NNW 1002,4 5 0 1,2
11.01.2021 03:00:00 7,8 6,9 - - 22 12 - - W 1001,5 13 0 0,6
11.01.2021 02:00:00 7,9 6,6 - - 15 8 - - ZW 1002,0 35 0 0,2
11.01.2021 01:00:00 6,1 5,3 - - 16 9 - - Z 1003,0 6 0 0,2
11.01.2021 00:00:00 6,0 4,7 - - 18 10 - - Z 1004,4 35 - 0,0
10.01.2021 23:00:00 6,3 4,5 - - 16 9 - - ZW 1005,5 40 0 0,2
10.01.2021 22:00:00 6,4 4,8 - - 18 10 46 25 ZW 1006,3 13 0 0,4
10.01.2021 21:00:00 6,3 4,8 - - 21 11 - - ZW 1007,3 17 0 0,4
10.01.2021 20:00:00 6,0 4,6 - - 13 7 - - ZZW 1007,8 35 0 0,2
10.01.2021 19:00:00 5,5 4,3 - - 11 6 - - ZZW 1009,1 17 0 0,2
10.01.2021 18:00:00 5,0 4,2 - - 4 2 - - WZW 1010,2 35 0 0,2
10.01.2021 17:00:00 2,6 2,5 - - 8 4 - - OZO 1011,1 35 0 0,2
10.01.2021 16:00:00 2,5 2,3 - - 5 3 - - OZO 1011,8 24 0 0,4
10.01.2021 15:00:00 2,9 2,4 - - 2 1 - - OZO 1012,7 28 0 0,2
10.01.2021 14:00:00 3,5 2,8 - - 2 1 - - ZZW 1013,1 21 0 0,0
10.01.2021 13:00:00 3,2 2,6 - - 5 3 - - ZZW 1013,9 9 0 0,2
10.01.2021 12:00:00 2,9 2,1 - - 9 5 - - Z 1015,0 15 0 0,4
10.01.2021 11:00:00 3,2 2,1 - - 5 3 - - ZZW 1015,7 45 0 0,4
10.01.2021 10:00:00 3,0 1,4 - - 8 4 - - ZZW 1016,3 35 0 0,0
10.01.2021 09:00:00 2,6 0,6 1,7 4,5 9 5 - - Z 1016,8 40 0 0,0
10.01.2021 08:00:00 2,5 -0,4 - - 8 4 - - Z 1017,0 35 0 0,0
10.01.2021 07:00:00 2,3 -0,9 - - 8 4 - - Z 1017,5 30 0 0,0
10.01.2021 06:00:00 2,3 -1,7 - - 11 6 - - ZZW 1018,1 40 0 0,0
10.01.2021 05:00:00 0,9 -0,3 - - 4 2 - - WNW 1018,4 30 0 0,0
10.01.2021 04:00:00 1,8 -0,7 - - 11 6 - - ZW 1018,6 10 0 0,0
10.01.2021 03:00:00 0,6 -2,3 - - 4 2 - - NW 1019,0 35 0 0,0

tt = temperatuur
td = dauwpunt
tt -20cm = temperatuur -20cm
tt -100cm = temperatuur -100cm
ff = windsnelheid
fx = windstoten
dd = windrichting
ppp = luchtdruk
vv = zicht
sd = Zonneschijnduur
rr = neerslag

Weerstations in de omgeving